www.pogodaiklimat.ru

Погода и климат >> Архив погоды >> Латвия >> Алуксне


ПОГОДА в Алуксне

  • Прогноз погоды в Алуксне
  • Монитор погоды в Алуксне

АРХИВ ПОГОДЫ в Алуксне

Время (UTC), дата Ветер
(напр.,м/с)
 
Видим.   Явления Облачность Т
(С)
Тd
(С)
f
(%)
Тe
(С)
Тes
(С)
Комфортность P
(гПа)
Po
(гПа)
Тmin
(С)
Tmax
(С)
R
(мм)
R24
(мм)
S
(см)
00 11.06 В 2 н/о н/о +16.6 +9.6 63 +17 +17 1047.2 999.4
03 11.06 СВ 2 н/о н/о +15.8 +9.9 68 +16 +16 1047.2 999.2
06 11.06 В 2 н/о н/о +17.2 +11.7 70 +18 +18 1047.0 999.3
09 11.06 В 2 н/о н/о +21.0 +13.0 60 +24 +24 комфорт 1045.7 998.7
12 11.06 В 2 н/о н/о +23.2 +14.3 57 +27 +27 душно 1043.9 997.3
15 11.06 В 2 н/о н/о +24.5 +15.6 58 +28 +28 душно 1042.2 995.9
18 11.06 В 2 н/о н/о +20.9 +14.7 68 +25 +25 комфорт 1041.7 994.9
21 11.06 С 3 н/о н/о +17.0 +15.8 93 +17 +17 1042.0 994.6
00 12.06 СВ 3 н/о н/о +16.4 +15.9 97 +16 +16 1041.8 994.2
03 12.06 СВ 3 н/о н/о +15.3 +15.2 99 +15 +15 1042.2 994.4
06 12.06 СВ 3 н/о н/о +14.3 +14.1 99 +13 +13 1044.0 996.0
09 12.06 В 3 н/о н/о +17.9 +14.9 83 +18 +18 1043.7 996.3
12 12.06 В 3 н/о н/о +19.7 +14.7 73 +22 +22 комфорт 1043.9 996.7
15 12.06 В 4 н/о н/о +19.6 +14.6 73 +21 +21 комфорт 1043.6 996.4
18 12.06 В 3 н/о н/о +18.3 +13.6 74 +19 +19 1043.8 996.4
21 12.06 В 4 н/о н/о +16.5 +11.5 72 +16 +16 1045.0 997.3
00 13.06 В 4 н/о н/о +15.1 +12.0 82 +14 +14 1044.9 996.9
03 13.06 В 4-7
{9}
20 км н/о +15.1 +13.0 87 +14 +14 1043.9 996.0
06 13.06 В 3-6
{10}
20 км н/о +15.8 +14.1 90 +15 +15 1019.2 995.8
09 13.06 В 5-9
{9}
20 км н/о +17.7 +14.7 83 +17 +17 1044.2 996.8
12 13.06 ЮВ 5-9
{10}
20 км н/о +21.3 +16.4 74 +25 +25 комфорт 1018.5 995.6
15 13.06 ЮВ 4-8
{8}
20 км н/о +24.2 +18.3 70 +29 +29 душно 1016.5 993.9
18 13.06 ЮВ 3-5
{5}
19 км н/о +22.7 +18.4 77 +28 +28 душно 1040.4 994.0
21 13.06 ЮЗ 1-8
{8}
19 км н/о +20.5 +18.5 88 +25 +25 комфорт 1016.9 994.0
00 14.06 СВ 1-1
{5}
20 км н/о +18.2 +16.8 92 +20 +20 1015.3 992.2
03 14.06 З 1-3
{4}
19 км н/о +18.3 +16.9 92 +20 +20 1016.0 992.9
06 14.06 З 2-4
{6}
20 км н/о +20.1 +16.7 81 +24 +24 комфорт 1016.1 993.1
09 14.06 З 4-6
{7}
20 км н/о +20.8 +16.7 77 +24 +24 комфорт 1016.6 993.7
12 14.06 З 3-7
{7}
20 км н/о +21.5 +16.4 73 +25 +25 комфорт 1016.9 994.0
15 14.06 СЗ 5-7
{8}
20 км н/о +18.9 +15.3 80 +20 +20 1017.6 994.5
18 14.06 СЗ 3-5
{5}
20 км н/о +17.3 +14.1 81 +17 +17 1017.5 994.3
21 14.06 З 4-6
{6}
20 км н/о +14.3 +12.9 91 +13 +13 1018.7 995.2
00 15.06 З 3-5
{8}
20 км н/о +13.0 +12.0 94 +12 +12 1018.7 995.1
03 15.06 СЗ 4-7
{8}
20 км н/о +12.1 +10.6 91 +10 +10 1019.0 995.3
06 15.06 СЗ 4-6
{7}
20 км н/о +14.6 +11.7 83 +13 +13 1019.0 995.5
09 15.06 СЗ 4-8
{8}
20 км н/о +19.3 +12.9 66 +21 +21 комфорт 1018.5 995.4
12 15.06 СЗ 3-5
{8}
19 км н/о +22.1 +13.4 58 +25 +25 комфорт 1017.6 994.7
15 15.06 СЗ 4-7
{8}
20 км н/о +21.7 +12.2 55 +24 +24 комфорт 1016.8 993.9
18 15.06 З 2-4
{6}
20 км н/о +19.6 +10.7 56 +21 +21 комфорт 1040.8 993.8
21 15.06 СЗ 2-2
{2}
20 км н/о +14.4 +11.3 82 +14 +14 1016.7 993.2
00 16.06 З 1-2
{3}
20 км н/о +12.1 +10.6 91 +12 +12 1017.5 993.8
03 16.06 штиль 0-1
{1}
20 км н/о +13.3 +11.6 89 +13 +13 1016.3 992.8
06 16.06 ЮЗ 1-3
{3}
20 км н/о +20.3 +14.1 68 +24 +24 комфорт 1016.3 993.3
09 16.06 З 2-4
{5}
20 км н/о +21.1 +11.4 54 +23 +23 комфорт 1015.6 992.7
12 16.06 Ю 2-3
{4}
19 км н/о +23.1 +10.4 45 +25 +25 комфорт 1015.0 992.2
15 16.06 ЮЗ 3-6
{6}
20 км н/о +23.4 +12.0 49 +26 +26 жарко 1014.1 991.4
18 16.06 З 1-1
{2}
20 км н/о +21.4 +13.7 61 +24 +24 комфорт 1014.0 991.2
21 16.06 штиль 0
{1}
20 км н/о +17.4 +14.4 83 +17 +17 1014.2 991.1
00 17.06 штиль 0-1
{1}
19 км н/о +16.5 +14.6 89 +16 +16 1038.4 991.0
03 17.06 Ю 1-1
{1}
20 км н/о +16.7 +15.1 90 +18 +18 1014.1 990.9
06 17.06 З 2-3
{4}
20 км н/о +18.3 +14.9 81 +19 +19 1014.3 991.2
09 17.06 З 2-3
{4}
20 км н/о +19.8 +15.0 74 +22 +22 комфорт 1038.5 991.6
12 17.06 Ю 1-3
{4}
11 км н/о +18.1 +16.2 89 +19 +19 1015.1 992.0 0.2
15 17.06 Ю 1-2
{4}
14 км н/о +15.9 +14.9 94 +17 +17 1040.1 992.6 2
18 17.06 ЮЗ 1-2
{5}
20 км н/о +16.8 +15.1 90 +18 +18 1015.4 992.2
21 17.06 З 2 20 км н/о +14.9 +13.7 93 +15 +15 1016.2 992.8

 

Местоположение метеостанции Алуксне (Латвия): широта 57.43 долгота 27.03 высота над уровнем моря 193 м.

В архиве по умолчанию представлена погода в Алуксне за последнюю неделю. Архивные данные за месяц целиком и за предыдущие месяцы, начиная с января 2011 года, Вы можете получить, выбрав интересующий диапазон дат из раскрывающегося списка и нажав кнопку "Ввод!".


*Определитесь, кто Вы:
робот инопланетянин человек

Внимание! Время в таблицах - всемирное. Для получения местного времени необходимо прибавить поправку, которая равна 2 ч.

Смотрите также архив погоды в соседних городах и на ближайших метеорологических станциях:

Погода в Гулбене (Латвия) (38 км)
Погода в Выру (Эстония) (47 км)
Погода в Валге (Эстония) (71 км)
Погода в Зозени (Латвия) (75 км)
Погода в Мадоне (Латвия) (80 км)
Погода в Пскове (Псковская область, Россия) (89 км)
Погода в Тарту (Эстония) (98 км)
Погода в Резекне (Латвия) (101 км)
Погода в Приекули (Латвия) (103 км)
Погода в Руйиене (Латвия) (111 км)

Пояснения к столбцам:

Ветер - указаны скорость ветра в м/с - средняя за 10 мин, порывы в срок и между сроками (в фигурных скобках) и направление, откуда дует ветер: С - северный, СВ - северо-восточный, В - восточный, ЮВ - юго-восточный, Ю - южный, ЮЗ - юго-западный, З - западный, СЗ - северо-западный.
Видимость - горизонтальная дальность видимости в метрах или километрах. При видимости от 1 до 10 км при отсутствии осадков обычно наблюдается дымка, при ухудшении видимости до 1 км и менее - туман. В сухую погоду видимость может ухудшаться дымом, пылью или мглою.
Явления - указаны атмосферные явления, наблюдавшиеся в срок или в последний час перед сроком; фигурными скобками обозначены явления, наблюдавшиеся между сроками (за 1-3 часа до срока); квадратными скобками обозначены град или гололедные отложения с указанием их диаметра в мм.
Облачность - указаны через наклонную черту общая и нижняя облачность в баллах и высота нижней границы облаков в метрах; квадратными скобками обозначены формы облаков: Ci - перистые, Cs - перисто-слоистые, Cc - перисто-кучевые, Ac - высококучевые, As - высокослоистые, Sc - слоисто-кучевые, Ns - слоисто-дождевые, Cu - кучевые, Cb - кучево-дождевые. Подробнее классификацию облаков см. в Атласе облаков (PDF).
T - Температура воздуха - температура, измеренная на высоте 2 м над землей.
Td - Температура точки росы - температура, при понижении до которой содержащийся в воздухе водяной пар достигнет насыщения.
f - Относительная влажность воздуха - влажноcть воздуха, измеренная на высоте 2 м над землей.
Te - Эффективная температура - температура, которую ощущает одетый по сезону человек в тени. Характеристика душности погоды. При расчете учитывается влияние влажности воздуха и скорости ветра на теплоощущения человека.
Tes - Эффективная температура на солнце - температура, которую ощущает человек, с поправкой на солнечный нагрев. Характеристика знойности погоды. Зависит от высоты солнца над горизонтом, облачности и скорости ветра. Ночью, в пасмурную погоду, а также при ветре 12 м/с и более поправка равна нулю.
P - Атмосферное давление - приведенное к уровню моря атмосферное давление.
Po - Атмосферное давление - измеренное на уровне метеостанции атмосферное давление.
Tmin - Минимальная температура - минимум температуры воздуха на высоте 2 м над землей.
Tmax - Максимальная температура - максимум температуры воздуха на высоте 2 м над землей.
R - Количество осадков - Количество выпавших осадков за период времени, мм. При наведении курсора мыши на число - период времени, за который выпало указанное количество осадков.
R24 - Количество осадков - Количество выпавших осадков за 24 часа, мм.
S - Снежный покров - Высота снежного покрова, см. При наведении курсора мыши на число - состояние снежного покрова и степень покрытия местности в баллах.